{"data":{"norad_id":50322,"intl_designator":"2021-129B","name":"SHIYAN-12 02 (SY-12 02)","alt_names":[],"object_type":"PAYLOAD","status":"ACTIVE","operator":null,"country":"PRC","launch_date":"2021-12-23","launch_site_code":"WSC","launch_vehicle":null,"mission":null,"orbit_class":"UNKNOWN","rcs_meters":null,"size_class":null,"mass_kg":null,"dimensions":null,"purposes":["comms"],"wikipedia_slug":null,"has_3d_model":false,"image_url":null,"decayed_at":null,"tle_current":{"epoch":"2026-05-24T16:06:00.176832Z","epoch_age_seconds":96813,"freshness":"FRESH","line1":"1 50322U 21129B   26144.67083538 -.00000094  00000+0  00000+0 0  9996","line2":"2 50322   3.6161  80.2270 0002247  47.7666  66.0515  1.00492065 16266","mean_motion":1.00492065,"eccentricity":0.0002247,"inclination_deg":3.6161,"raan_deg":80.227,"arg_perigee_deg":47.7666,"mean_anomaly_deg":66.0515,"bstar":0,"rev_number":1626,"period_min":1432.9489597014,"perigee_km":35715.494745356,"apogee_km":35734.41587504,"semimajor_km":42103.092310198,"source":"CELESTRAK","updated_at":"2026-05-25T13:38:14.106178Z"}}}